Location: Unspecified
(41.5000°N, 0.0000°E)
Time: 09:01:40
(UTC+00:00)

Courier 1B Rocket - Pass Details

Date: 27 June 2019
Orbit: 920 x 1202 km, 28.2° (Epoch: 16 July)

Event Time Altitude Azimuth Distance (km) Brightness Sun altitude
Rises 06:11:29 0° 256° (WSW) 3,825 7.5 16.7°
Reaches altitude 10° 06:15:09 10° 239° (WSW) 2,813 6.9 17.4°
Maximum altitude 06:19:36 19° 198° (SSW) 2,186 6.6 18.2°
Drops below altitude 10° 06:23:54 10° 156° (SSE) 2,687 7.5 19.0°
Sets 06:27:18 0° 138° (SE) 3,594 8.3 19.6°
